Weather History for Worland, WY

Change the Weather History Date:

Friday, October 26, 2012

  Actual Average Record
Temperature  
Mean Temperature 30 °F 42 °F  
Max Temperature 42 °F 56 °F 79 °F (1999)
Min Temperature 17 °F 27 °F 17 °F (2012)
Degree Days  
Heating Degree Days 35 23  
Month to date heating degree days 520 481  
Since 1 July heating degree days 608 738  
Cooling Degree Days 0 0  
Month to date cooling degree days 0 0  
Year to date cooling degree days 901 535  
Moisture  
Dew Point 19 °F    
Average Humidity 67    
Maximum Humidity 92    
Minimum Humidity 41    
Precipitation  
Precipitation 0.00 in 0.02 in 0.09 in (1996)
Month to date precipitation 0.26 0.62  
Year to date precipitation 2.05 6.92  
Sea Level Pressure  
Sea Level Pressure 30.39 in    
Wind  
Wind Speed 6 mph (ESE)    
Max Wind Speed 10 mph    
Max Gust Speed -    
Visibility 10 miles    
Events      
T = Trace of Precipitation, MM = Missing Value Source: NWS Daily Summary

Daily Weather History Graph

Daily Weather History Graph

Search for Another Location

Airport:

Trip Planner

Search our weather history database for the weather conditions in past years. The results will help you decide how hot, cold, wet, or windy it might be!

Date:

Astronomy

Oct. 26, 2012 Rise Set
Actual Time 7:41 AM MDT 6:09 PM MDT
Civil Twilight 7:11 AM MDT 6:39 PM MDT
Nautical Twilight 6:37 AM MDT 7:13 PM MDT
Astronomical Twilight 6:04 AM MDT 7:46 PM MDT
Moon 4:31 PM MDT (10/26) 4:35 AM MDT (10/26)
Length of Visible Light 11h 27m
Length of Day
10h 28m
Waxing Gibbous, 91% of the Moon is Illuminated
Oct 26
Waxing Gibbous
Oct 29
Full
Nov 6
Last Quarter
Nov 13
New
Nov 20
First Quarter

Hourly Weather History & Observations

Time (MDT) Temp. Windchill Dew Point Humidity Pressure Visibility Wind Dir Wind Speed Gust Speed Precip Events Conditions
12:53 AM 25.0 °F 14.8 °F 19.0 °F 78% 30.50 in 10.0 mi North 10.4 mph - N/A   Mostly Cloudy
1:30 AM 24.8 °F 16.1 °F 19.4 °F 80% 30.40 in 10.0 mi North 8.1 mph - N/A   Mostly Cloudy
1:46 AM 24.8 °F 17.9 °F 19.4 °F 80% 30.39 in 10.0 mi North 5.8 mph - N/A   Mostly Cloudy
1:53 AM 25.0 °F 19.3 °F 19.0 °F 78% 30.51 in 10.0 mi NNE 4.6 mph - N/A   Overcast
2:18 AM 24.8 °F 20.5 °F 17.6 °F 74% 30.39 in 10.0 mi ENE 3.5 mph - N/A   Mostly Cloudy
2:53 AM 21.9 °F 14.5 °F 18.0 °F 85% 30.53 in 10.0 mi ESE 5.8 mph - N/A   Mostly Cloudy
3:53 AM 19.9 °F 13.4 °F 17.1 °F 89% 30.55 in 10.0 mi SSE 4.6 mph - N/A   Partly Cloudy
4:53 AM 19.9 °F - 17.1 °F 89% 30.55 in 10.0 mi Calm Calm - N/A   Partly Cloudy
5:53 AM 19.0 °F 8.2 °F 16.0 °F 88% 30.53 in 10.0 mi ESE 9.2 mph - N/A   Clear
6:53 AM 18.0 °F 6.1 °F 15.1 °F 88% 30.53 in 10.0 mi SE 10.4 mph - N/A   Clear
7:53 AM 17.1 °F - 14.0 °F 88% 30.54 in 10.0 mi Calm Calm - N/A   Clear
8:53 AM 21.0 °F 14.6 °F 17.1 °F 85% 30.53 in 10.0 mi SSE 4.6 mph - N/A   Clear
9:53 AM 27.0 °F 18.0 °F 21.0 °F 78% 30.50 in 10.0 mi SE 9.2 mph - N/A   Clear
10:53 AM 32.0 °F 24.2 °F 21.9 °F 66% 30.47 in 10.0 mi SE 9.2 mph - N/A   Clear
11:53 AM 34.0 °F 26.6 °F 21.0 °F 59% 30.44 in 10.0 mi South 9.2 mph - N/A   Clear
12:53 PM 37.0 °F 33.3 °F 21.0 °F 52% 30.39 in 10.0 mi SE 4.6 mph - N/A   Clear
1:53 PM 39.9 °F 34.5 °F 23.0 °F 51% 30.33 in 10.0 mi SSE 8.1 mph - N/A   Clear
2:53 PM 39.9 °F 37.8 °F 19.0 °F 43% 30.30 in 10.0 mi Variable 3.5 mph - N/A   Clear
3:53 PM 41.0 °F 35.8 °F 19.0 °F 41% 30.27 in 10.0 mi SSE 8.1 mph - N/A   Clear
4:53 PM 41.0 °F 34.7 °F 21.0 °F 45% 30.24 in 10.0 mi ESE 10.4 mph - N/A   Clear
5:53 PM 37.9 °F 32.1 °F 21.9 °F 53% 30.22 in 10.0 mi ESE 8.1 mph - N/A   Clear
7:53 PM 35.1 °F 27.9 °F 23.0 °F 61% 30.23 in 10.0 mi ESE 9.2 mph - N/A   Mostly Cloudy
8:53 PM 34.0 °F 27.2 °F 21.0 °F 59% 30.21 in 10.0 mi ESE 8.1 mph - N/A   Scattered Clouds
9:53 PM 34.0 °F - 21.0 °F 59% 30.19 in 10.0 mi Calm Calm - N/A   Overcast
10:53 PM 32.0 °F - 21.0 °F 64% 30.18 in 10.0 mi Calm Calm - N/A   Mostly Cloudy
11:53 PM 26.1 °F - 19.9 °F 78% 30.19 in 10.0 mi Calm Calm - N/A   Mostly Cloudy